TAP1312 LPPT-EGCC

Flight info

Callsign TAP1312
Flight time N/A
Altitude 36000
Route IXIDA DCT DIVUT DCT PINEK DCT KORUL DCT EBOMO DCT RUSIB DCT NOZHU/N0442F370 DCT SHIRI DCT TOJAQ DCT EPACE DCT ACCOP DCT MOCQO P16 AXCIS
Aircraft A320/M-SDE3FGHIRWY/LB1

Departure

Time N/A
Airport Lisbon Humberto Delgado Airport (LPPT)

Arrival

Time 2026-05-03 21:28
Airport Manchester Airport (EGCC)
Time Latitude Longitude Altitude Speed Heading
2026-05-03 20:47 49.90912 -3.73895 35941 ft 428 kts
2026-05-03 20:47 49.96955 -3.73189 35941 ft 442 kts
2026-05-03 20:48 50.03175 -3.72474 35941 ft 454 kts
2026-05-03 20:48 50.09537 -3.71724 35938 ft 466 kts
2026-05-03 20:49 50.16094 -3.70940 35928 ft 477 kts
2026-05-03 20:49 50.22745 -3.70128 35930 ft 487 kts
2026-05-03 20:50 50.29583 -3.69304 35933 ft 496 kts
2026-05-03 20:50 50.36543 -3.68467 35933 ft 506 kts
2026-05-03 20:50 50.40047 -3.68044 36294 ft 501 kts
2026-05-03 20:51 50.43506 -3.67625 36791 ft 494 kts
2026-05-03 20:51 50.46864 -3.67216 37283 ft 486 kts
2026-05-03 20:51 50.50226 -3.66804 37783 ft 479 kts
2026-05-03 20:51 50.53536 -3.66397 38297 ft 471 kts
2026-05-03 20:52 50.56744 -3.65999 38750 ft 464 kts
2026-05-03 20:52 50.59935 -3.65602 39167 ft 455 kts
2026-05-03 20:52 50.63068 -3.65210 39578 ft 447 kts
2026-05-03 20:52 50.66142 -3.64822 40002 ft 437 kts
2026-05-03 20:53 50.69145 -3.64441 40432 ft 428 kts
2026-05-03 20:53 50.72088 -3.64066 40863 ft 418 kts
2026-05-03 20:53 50.74945 -3.63698 41287 ft 407 kts
2026-05-03 20:53 50.77692 -3.63342 41689 ft 395 kts
2026-05-03 20:54 50.80401 -3.62988 42053 ft 385 kts
2026-05-03 20:54 50.85757 -3.62286 41878 ft 390 kts
2026-05-03 20:54 50.88496 -3.61944 40969 ft 416 kts
2026-05-03 20:55 50.91520 -3.61593 39800 ft 451 kts
2026-05-03 20:55 50.94728 -3.61220 39162 ft 472 kts
2026-05-03 20:55 50.98071 -3.60830 38563 ft 491 kts
2026-05-03 20:55 51.01536 -3.60352 38177 ft 502 kts
2026-05-03 20:56 51.08511 -3.59425 38187 ft 506 kts
2026-05-03 20:56 51.11985 -3.59008 38884 ft 493 kts
2026-05-03 20:56 51.15365 -3.58596 39382 ft 484 kts
2026-05-03 20:57 51.22092 -3.57572 39307 ft 481 kts
2026-05-03 20:57 51.25379 -3.56986 39199 ft 469 kts
2026-05-03 20:57 51.28585 -3.56263 38976 ft 460 kts
2026-05-03 20:58 51.31734 -3.55417 38565 ft 457 kts
2026-05-03 20:58 51.34831 -3.54506 37965 ft 457 kts
2026-05-03 20:58 51.37955 -3.53565 37327 ft 456 kts
2026-05-03 20:58 51.41083 -3.52638 36809 ft 454 kts
2026-05-03 20:59 51.44185 -3.51747 36928 ft 453 kts
2026-05-03 20:59 51.47265 -3.50888 36925 ft 456 kts
2026-05-03 20:59 51.53535 -3.49176 36922 ft 456 kts
2026-05-03 21:00 51.58750 -3.47757 36920 ft 454 kts
2026-05-03 21:00 51.66007 -3.45761 36925 ft 455 kts
2026-05-03 21:01 51.72244 -3.44018 36930 ft 454 kts
2026-05-03 21:02 51.85266 -3.40393 36757 ft 458 kts
2026-05-03 21:02 51.88448 -3.39499 35601 ft 471 kts
2026-05-03 21:02 51.91708 -3.38588 34780 ft 475 kts
2026-05-03 21:03 51.94997 -3.38095 34194 ft 472 kts
2026-05-03 21:03 51.97161 -3.37939 33649 ft 467 kts
2026-05-03 21:03 52.00387 -3.37707 32661 ft 461 kts
2026-05-03 21:03 52.04621 -3.37402 31938 ft 455 kts
2026-05-03 21:04 52.06754 -3.37248 31593 ft 452 kts
2026-05-03 21:04 52.09889 -3.37021 31078 ft 448 kts
2026-05-03 21:04 52.12949 -3.36801 30576 ft 444 kts
2026-05-03 21:04 52.16024 -3.36578 30086 ft 440 kts
2026-05-03 21:05 52.19069 -3.36356 29519 ft 436 kts
2026-05-03 21:05 52.22089 -3.36136 28954 ft 432 kts
2026-05-03 21:05 52.25080 -3.35920 28419 ft 427 kts
2026-05-03 21:05 52.28038 -3.35707 27921 ft 422 kts
2026-05-03 21:06 52.30946 -3.35497 27156 ft 414 kts
2026-05-03 21:06 52.33782 -3.35289 26728 ft 409 kts
2026-05-03 21:06 52.36610 -3.35079 26275 ft 404 kts
2026-05-03 21:06 52.39397 -3.34874 25827 ft 399 kts
2026-05-03 21:07 52.42156 -3.34670 25359 ft 394 kts
2026-05-03 21:07 52.44851 -3.34472 24902 ft 380 kts
2026-05-03 21:07 52.47450 -3.34285 24446 ft 367 kts
2026-05-03 21:07 52.49987 -3.34101 23998 ft 364 kts
2026-05-03 21:08 52.52515 -3.33911 23548 ft 363 kts
2026-05-03 21:08 52.55023 -3.33721 23162 ft 357 kts
2026-05-03 21:08 52.57494 -3.33537 22747 ft 353 kts
2026-05-03 21:08 52.59913 -3.33361 22286 ft 351 kts
2026-05-03 21:09 52.62352 -3.33071 21857 ft 349 kts
2026-05-03 21:09 52.64701 -3.32112 21414 ft 346 kts 21°
2026-05-03 21:09 52.66962 -3.30751 20956 ft 345 kts 20°
2026-05-03 21:09 52.69208 -3.29402 20530 ft 343 kts 20°
2026-05-03 21:10 52.71426 -3.28078 20103 ft 342 kts 20°
2026-05-03 21:10 52.73655 -3.26753 19730 ft 339 kts 20°
2026-05-03 21:10 52.75869 -3.25437 19359 ft 337 kts 20°
2026-05-03 21:10 52.78073 -3.24120 18975 ft 335 kts 20°
2026-05-03 21:11 52.80262 -3.22811 18601 ft 334 kts 20°
2026-05-03 21:11 52.82447 -3.21503 18216 ft 333 kts 20°
2026-05-03 21:11 52.84627 -3.20194 17824 ft 331 kts 20°
2026-05-03 21:11 52.86761 -3.18912 17440 ft 329 kts 20°
2026-05-03 21:12 52.88935 -3.17737 17060 ft 327 kts 13°
2026-05-03 21:12 52.91179 -3.17238 16707 ft 324 kts
2026-05-03 21:12 52.93430 -3.17067 16325 ft 323 kts
2026-05-03 21:12 52.95647 -3.16899 15982 ft 321 kts
2026-05-03 21:13 52.97875 -3.16725 15665 ft 319 kts
2026-05-03 21:13 53.00082 -3.16550 15355 ft 316 kts
2026-05-03 21:13 53.02274 -3.16376 15035 ft 314 kts
2026-05-03 21:13 53.04456 -3.16203 14711 ft 313 kts
2026-05-03 21:14 53.06641 -3.16030 14375 ft 311 kts
2026-05-03 21:14 53.08802 -3.15860 14060 ft 310 kts
2026-05-03 21:14 53.10933 -3.15692 13746 ft 308 kts
2026-05-03 21:14 53.13081 -3.15523 13394 ft 307 kts
2026-05-03 21:15 53.15207 -3.15353 13041 ft 305 kts
2026-05-03 21:15 53.17300 -3.15183 12699 ft 303 kts
2026-05-03 21:15 53.19402 -3.14967 12352 ft 301 kts
2026-05-03 21:15 53.21352 -3.13782 12024 ft 299 kts 33°
2026-05-03 21:16 53.22792 -3.11333 11681 ft 297 kts 59°
2026-05-03 21:16 53.23633 -3.08180 11307 ft 297 kts 69°
2026-05-03 21:16 53.24340 -3.04941 10918 ft 297 kts 70°
2026-05-03 21:16 53.25033 -3.01740 10559 ft 296 kts 70°
2026-05-03 21:17 53.25731 -2.98515 10226 ft 295 kts 70°
2026-05-03 21:17 53.26200 -2.96342 10014 ft 293 kts 70°
2026-05-03 21:17 53.27112 -2.92111 9550 ft 291 kts 70°
2026-05-03 21:17 53.27790 -2.88936 9184 ft 289 kts 70°
2026-05-03 21:18 53.28457 -2.85786 8838 ft 286 kts 70°
2026-05-03 21:18 53.29112 -2.82673 8488 ft 283 kts 70°
2026-05-03 21:18 53.29756 -2.79571 8137 ft 280 kts 70°
2026-05-03 21:18 53.30381 -2.76534 7724 ft 280 kts 70°
2026-05-03 21:19 53.31012 -2.73459 7241 ft 277 kts 69°
2026-05-03 21:19 53.31615 -2.70438 6744 ft 269 kts 70°
2026-05-03 21:19 53.32185 -2.67537 6510 ft 251 kts 70°
2026-05-03 21:19 53.32710 -2.64853 6296 ft 237 kts 70°
2026-05-03 21:20 53.33207 -2.62285 5989 ft 233 kts 70°
2026-05-03 21:20 53.33702 -2.59710 5662 ft 231 kts 70°
2026-05-03 21:20 53.33933 -2.57077 5324 ft 232 kts 97°
2026-05-03 21:20 53.33303 -2.54627 5015 ft 232 kts 130°
2026-05-03 21:21 53.31989 -2.53142 4673 ft 235 kts 162°
2026-05-03 21:21 53.30392 -2.53011 4515 ft 224 kts 187°
2026-05-03 21:21 53.28967 -2.53818 4372 ft 213 kts 212°
2026-05-03 21:21 53.27799 -2.55285 4251 ft 207 kts 219°
2026-05-03 21:22 53.26704 -2.56820 4100 ft 202 kts 220°
2026-05-03 21:22 53.25607 -2.58265 3909 ft 200 kts 206°
2026-05-03 21:22 53.24297 -2.58688 3674 ft 194 kts 167°
2026-05-03 21:22 53.23152 -2.57688 3445 ft 185 kts 127°
2026-05-03 21:23 53.22606 -2.55805 3131 ft 179 kts 96°
2026-05-03 21:23 53.22733 -2.53806 3030 ft 173 kts 68°
2026-05-03 21:23 53.23391 -2.52134 3035 ft 173 kts 52°
2026-05-03 21:23 53.24153 -2.50581 3038 ft 172 kts 51°
2026-05-03 21:24 53.24887 -2.49081 3043 ft 157 kts 51°
2026-05-03 21:24 53.25573 -2.47678 3018 ft 154 kts 52°
2026-05-03 21:24 53.26244 -2.46302 2885 ft 151 kts 52°
2026-05-03 21:24 53.26899 -2.44957 2722 ft 151 kts 52°
2026-05-03 21:25 53.27559 -2.43602 2532 ft 150 kts 52°
2026-05-03 21:25 53.28217 -2.42251 2330 ft 149 kts 51°
2026-05-03 21:25 53.28873 -2.40903 2124 ft 149 kts 52°
2026-05-03 21:25 53.29527 -2.39556 1920 ft 148 kts 52°
2026-05-03 21:26 53.30180 -2.38214 1734 ft 148 kts 51°
2026-05-03 21:26 53.30821 -2.36893 1509 ft 147 kts 50°
2026-05-03 21:26 53.31465 -2.35568 1309 ft 143 kts 51°
2026-05-03 21:26 53.32068 -2.34324 1105 ft 133 kts 50°
2026-05-03 21:27 53.32650 -2.33125 921 ft 131 kts 50°
2026-05-03 21:27 53.33223 -2.31942 743 ft 130 kts 50°
2026-05-03 21:27 53.33792 -2.30767 530 ft 130 kts 50°
2026-05-03 21:27 53.34350 -2.29606 348 ft 128 kts 49°
2026-05-03 21:28 53.34914 -2.28453 234 ft 126 kts 48°
2026-05-03 21:28 53.35377 -2.27496 252 ft 82 kts 51°
2026-05-03 21:28 53.35643 -2.26945 260 ft 40 kts 51°
2026-05-03 21:28 53.35777 -2.26700 265 ft 22 kts 31°
2026-05-03 21:29 53.35868 -2.26694 260 ft 0 kts 352°
2026-05-03 21:29 53.35884 -2.26698 258 ft 5 kts 352°
2026-05-03 21:29 53.35914 -2.26713 256 ft 5 kts 320°
2026-05-03 21:29 53.35919 -2.26773 255 ft 5 kts 260°
2026-05-03 21:30 53.35905 -2.26823 255 ft 4 kts 241°
2026-05-03 21:30 53.35892 -2.26862 255 ft 4 kts 241°
2026-05-03 21:30 53.35852 -2.26951 255 ft 10 kts 228°
2026-05-03 21:30 53.35816 -2.27027 255 ft 7 kts 232°
2026-05-03 21:31 53.35787 -2.27093 255 ft 6 kts 236°
2026-05-03 21:31 53.35772 -2.27133 255 ft 1 kts 237°
2026-05-03 21:31 53.35758 -2.27167 255 ft 10 kts 237°
2026-05-03 21:31 53.35721 -2.27251 255 ft 9 kts 229°
2026-05-03 21:32 53.35684 -2.27324 255 ft 8 kts 230°
2026-05-03 21:32 53.35649 -2.27395 254 ft 8 kts 231°
2026-05-03 21:32 53.35623 -2.27464 255 ft 6 kts 252°
2026-05-03 21:32 53.35644 -2.27560 256 ft 15 kts 313°
2026-05-03 21:33 53.35725 -2.27642 255 ft 14 kts 339°
2026-05-03 21:33 53.35831 -2.27656 255 ft 16 kts
2026-05-03 21:33 53.35945 -2.27633 255 ft 17 kts
2026-05-03 21:33 53.36060 -2.27642 255 ft 17 kts 318°
2026-05-03 21:34 53.36099 -2.27819 255 ft 16 kts 284°
2026-05-03 21:34 53.36143 -2.27978 255 ft 15 kts 310°
2026-05-03 21:34 53.36224 -2.28110 255 ft 17 kts 315°
2026-05-03 21:34 53.36304 -2.28248 255 ft 17 kts 313°
2026-05-03 21:35 53.36387 -2.28392 255 ft 16 kts 315°
2026-05-03 21:35 53.36464 -2.28519 255 ft 14 kts 313°
2026-05-03 21:35 53.36536 -2.28640 255 ft 14 kts 314°
2026-05-03 21:35 53.36584 -2.28785 255 ft 12 kts 291°
2026-05-03 21:36 53.36633 -2.28885 255 ft 11 kts 333°
2026-05-03 21:36 53.36697 -2.28962 255 ft 11 kts 315°
2026-05-03 21:36 53.36753 -2.29035 255 ft 10 kts 345°
2026-05-03 21:36 53.36825 -2.29005 255 ft 12 kts 32°
2026-05-03 21:37 53.36870 -2.28931 255 ft 9 kts 46°
2026-05-03 21:37 53.36887 -2.28884 255 ft 2 kts 92°
2026-05-03 21:37 53.36880 -2.28870 255 ft 5 kts 130°
2026-05-03 21:37 53.36865 -2.28845 255 ft 1 kts 133°
2026-05-03 21:38 53.36863 -2.28841 255 ft 0 kts 132°